EN

Hourly Weather Taynoe

Today, 2 October, Friday

Time Temperature Precipitation Wind Pressure Humidity
00:00 +14°C° 0 mm 6 mps 751 mmHg 43%
01:00 +14°C° 0 mm 6 mps 752 mmHg 43%
02:00 +13°C° 0 mm 6 mps 752 mmHg 43%
03:00 +13°C° 0 mm 6 mps 752 mmHg 44%
04:00 +13°C° 0 mm 6 mps 752 mmHg 45%
05:00 +12°C° 0 mm 5 mps 752 mmHg 46%
06:00 +13°C° 0 mm 6 mps 752 mmHg 48%
07:00 +13°C° 0 mm 6 mps 752 mmHg 49%
08:00 +14°C° 0 mm 6 mps 752 mmHg 50%
09:00 +15°C° 0 mm 7 mps 752 mmHg 48%
10:00 +16°C° 0 mm 7 mps 752 mmHg 46%
11:00 +17°C° 0 mm 7 mps 752 mmHg 44%
12:00 +17°C° 0 mm 7 mps 752 mmHg 43%
13:00 +19°C° 0 mm 6 mps 752 mmHg 42%
14:00 +19°C° 0 mm 6 mps 752 mmHg 42%
15:00 +17°C° 0 mm 5 mps 752 mmHg 43%
16:00 +16°C° 0 mm 5 mps 752 mmHg 45%
17:00 +17°C° 0 mm 4 mps 752 mmHg 47%
18:00 +15°C° 0 mm 5 mps 753 mmHg 47%
19:00 +15°C° 0 mm 5 mps 753 mmHg 47%
20:00 +15°C° 0 mm 6 mps 753 mmHg 47%
21:00 +14°C° 0 mm 5 mps 753 mmHg 49%
22:00 +14°C° 0 mm 5 mps 753 mmHg 50%
23:00 +14°C° 0 mm 5 mps 753 mmHg 52%

Tomorrow, 3 October, Saturday

Time Temperature Precipitation Wind Pressure Humidity
00:00 +14°C° 0 mm 5 mps 753 mmHg 50%
01:00 +14°C° 0 mm 5 mps 753 mmHg 49%
02:00 +14°C° 0 mm 5 mps 753 mmHg 48%
03:00 +14°C° 0 mm 5 mps 753 mmHg 48%
04:00 +14°C° 0 mm 4 mps 753 mmHg 48%
05:00 +13°C° 0 mm 4 mps 753 mmHg 48%
06:00 +14°C° 0 mm 4 mps 753 mmHg 49%
07:00 +14°C° 0 mm 4 mps 754 mmHg 49%
08:00 +14°C° 0 mm 4 mps 754 mmHg 50%
09:00 +15°C° 0 mm 5 mps 754 mmHg 48%
10:00 +16°C° 0 mm 5 mps 754 mmHg 46%
11:00 +19°C° 0 mm 5 mps 754 mmHg 44%
12:00 +19°C° 0 mm 6 mps 754 mmHg 43%
13:00 +19°C° 0 mm 6 mps 754 mmHg 43%
14:00 +19°C° 0 mm 6 mps 754 mmHg 43%
15:00 +17°C° 0 mm 6 mps 754 mmHg 45%
16:00 +16°C° 0 mm 5 mps 754 mmHg 47%
17:00 +15°C° 0 mm 4 mps 754 mmHg 49%
18:00 +15°C° 0 mm 4 mps 754 mmHg 47%
19:00 +15°C° 0 mm 4 mps 754 mmHg 44%
20:00 +15°C° 0 mm 4 mps 755 mmHg 41%
21:00 +14°C° 0 mm 4 mps 755 mmHg 42%
22:00 +14°C° 0 mm 4 mps 755 mmHg 43%
23:00 +13°C° 0 mm 4 mps 755 mmHg 44%

Day after tomorrow, 4 October, Sunday

Time Temperature Precipitation Wind Pressure Humidity
00:00 +13°C° 0 mm 4 mps 755 mmHg 44%
01:00 +12°C° 0 mm 4 mps 755 mmHg 44%
02:00 +12°C° 0 mm 3 mps 756 mmHg 45%
03:00 +11°C° 0 mm 3 mps 756 mmHg 46%
04:00 +11°C° 0 mm 3 mps 756 mmHg 47%
05:00 +10°C° 0 mm 3 mps 756 mmHg 49%
06:00 +11°C° 0 mm 4 mps 756 mmHg 48%
07:00 +12°C° 0 mm 4 mps 756 mmHg 48%
08:00 +13°C° 0 mm 4 mps 756 mmHg 47%
09:00 +15°C° 0 mm 5 mps 756 mmHg 43%
10:00 +17°C° 0 mm 5 mps 756 mmHg 40%
11:00 +20°C° 0 mm 5 mps 756 mmHg 36%
12:00 +20°C° 0 mm 5 mps 756 mmHg 35%
13:00 +20°C° 0 mm 5 mps 756 mmHg 35%
14:00 +20°C° 0 mm 5 mps 756 mmHg 35%
15:00 +19°C° 0 mm 4 mps 756 mmHg 38%
16:00 +18°C° 0 mm 4 mps 756 mmHg 42%
17:00 +16°C° 0 mm 3 mps 756 mmHg 45%
18:00 +16°C° 0 mm 3 mps 756 mmHg 44%
19:00 +14°C° 0 mm 4 mps 756 mmHg 44%
20:00 +14°C° 0 mm 4 mps 757 mmHg 43%
21:00 +13°C° 0 mm 4 mps 757 mmHg 44%
22:00 +13°C° 0 mm 4 mps 757 mmHg 44%
23:00 +13°C° 0 mm 4 mps 757 mmHg 45%

5 October, Monday

Time Temperature Precipitation Wind Pressure Humidity
00:00 +12°C° 0 mm 4 mps 757 mmHg 44%
01:00 +12°C° 0 mm 4 mps 757 mmHg 43%
02:00 +11°C° 0 mm 4 mps 757 mmHg 42%
03:00 +11°C° 0 mm 3 mps 757 mmHg 41%
04:00 +10°C° 0 mm 3 mps 758 mmHg 40%
05:00 +10°C° 0 mm 3 mps 758 mmHg 39%
06:00 +11°C° 0 mm 4 mps 758 mmHg 38%
07:00 +12°C° 0 mm 4 mps 758 mmHg 37%
08:00 +13°C° 0 mm 4 mps 758 mmHg 37%
09:00 +14°C° 0 mm 4 mps 758 mmHg 34%
10:00 +16°C° 0 mm 5 mps 758 mmHg 31%
11:00 +19°C° 0 mm 5 mps 758 mmHg 28%
12:00 +19°C° 0 mm 5 mps 758 mmHg 29%
13:00 +19°C° 0 mm 5 mps 757 mmHg 29%
14:00 +20°C° 0 mm 5 mps 757 mmHg 30%
15:00 +17°C° 0 mm 5 mps 757 mmHg 34%
16:00 +17°C° 0 mm 4 mps 756 mmHg 38%
17:00 +16°C° 0 mm 3 mps 756 mmHg 42%
18:00 +14°C° 0 mm 4 mps 756 mmHg 43%
19:00 +14°C° 0 mm 4 mps 756 mmHg 43%
20:00 +14°C° 0 mm 4 mps 756 mmHg 44%
21:00 +14°C° 0 mm 4 mps 756 mmHg 46%
22:00 +13°C° 0 mm 4 mps 756 mmHg 49%
23:00 +13°C° 0 mm 4 mps 756 mmHg 51%

6 October, Tuesday

Time Temperature Precipitation Wind Pressure Humidity
00:00 +13°C° 0 mm 4 mps 756 mmHg 53%
01:00 +12°C° 0 mm 4 mps 756 mmHg 55%
02:00 +12°C° 0 mm 4 mps 755 mmHg 57%
03:00 +12°C° 0 mm 4 mps 755 mmHg 59%
04:00 +11°C° 0 mm 4 mps 756 mmHg 61%
05:00 +11°C° 0 mm 4 mps 756 mmHg 63%
06:00 +12°C° 0 mm 4 mps 755 mmHg 60%
07:00 +13°C° 0 mm 5 mps 755 mmHg 56%
08:00 +14°C° 0 mm 5 mps 755 mmHg 53%
09:00 +15°C° 0 mm 6 mps 755 mmHg 48%
10:00 +17°C° 0 mm 6 mps 755 mmHg 43%
11:00 +20°C° 0 mm 6 mps 755 mmHg 38%
12:00 +20°C° 0 mm 6 mps 755 mmHg 38%
13:00 +21°C° 0 mm 6 mps 754 mmHg 37%
14:00 +21°C° 0 mm 6 mps 754 mmHg 36%
15:00 +20°C° 0 mm 5 mps 754 mmHg 40%
16:00 +18°C° 0 mm 4 mps 753 mmHg 44%
17:00 +17°C° 0 mm 3 mps 753 mmHg 48%
18:00 +16°C° 0 mm 3 mps 753 mmHg 49%
19:00 +16°C° 0 mm 3 mps 753 mmHg 51%
20:00 +14°C° 0 mm 3 mps 753 mmHg 52%
21:00 +14°C° 0 mm 3 mps 753 mmHg 52%
22:00 +13°C° 0 mm 3 mps 754 mmHg 53%
23:00 +12°C° 0 mm 3 mps 754 mmHg 54%

7 October, Wednesday

Time Temperature Precipitation Wind Pressure Humidity
00:00 +12°C° 0 mm 3 mps 753 mmHg 54%
01:00 +12°C° 0 mm 3 mps 753 mmHg 55%
02:00 +11°C° 0 mm 3 mps 753 mmHg 55%
03:00 +11°C° 0 mm 3 mps 753 mmHg 55%
04:00 +11°C° 0 mm 3 mps 753 mmHg 56%
05:00 +10°C° 0 mm 3 mps 754 mmHg 56%
06:00 +11°C° 0 mm 3 mps 754 mmHg 54%
07:00 +12°C° 0 mm 3 mps 754 mmHg 52%
08:00 +13°C° 0 mm 4 mps 754 mmHg 50%
09:00 +15°C° 0 mm 4 mps 754 mmHg 46%
10:00 +18°C° 0 mm 4 mps 754 mmHg 42%
11:00 +20°C° 0 mm 4 mps 754 mmHg 38%
12:00 +20°C° 0 mm 4 mps 754 mmHg 37%
13:00 +21°C° 0 mm 4 mps 754 mmHg 35%
14:00 +21°C° 0 mm 4 mps 753 mmHg 34%
15:00 +19°C° 0 mm 3 mps 753 mmHg 38%
16:00 +18°C° 0 mm 3 mps 753 mmHg 42%
17:00 +16°C° 0 mm 3 mps 753 mmHg 46%
18:00 +14°C° 0 mm 3 mps 754 mmHg 47%
19:00 +14°C° 0 mm 2 mps 754 mmHg 47%
20:00 +14°C° 0 mm 2 mps 754 mmHg 48%
21:00 +12°C° 0 mm 3 mps 754 mmHg 48%
22:00 +12°C° 0 mm 3 mps 754 mmHg 48%
23:00 +11°C° 0 mm 3 mps 755 mmHg 48%
Show more

We Need Your Consent

Meteoprog and our Service Providers may store and access personal data such as cookies, device identifiers or other similar technologies on your device and process such data to personalise content and ads, as well as provide social media features and to analyse the traffic.

  • Store and/or access information on your device

    Cookies, device identifiers or other information can be stored or accessed on your device for the purposes indicated above.

  • Personalised ads and content, ad and content measurement, audience insights, and products development

    Ads and content can be personalised based on a profile. More data can be added to better personalise ads and content. Ad and content performance can be measured. Insights about the audience who saw the ads and content can be derived. Such data can be used to develop or improve user’s experience, systems and software.

By clicking ‘I Agree’ you will allow the use of indicated cookies, device identifiers, web beacons or other similar technologies. Your settings can be changed in the browser on your device.

For certain purposes, legitimate interests may be relied on, rather than consent. You can read more about this in our Privacy and Cookie Policy.